Date,TemperatureHighF,TemperatureAvgF,TemperatureLowF,DewpointHighF,DewpointAvgF,DewpointLowF,HumidityHigh,HumidityAvg,HumidityLow,PressureMaxIn,PressureMinIn,WindSpeedMaxMPH,WindSpeedAvgMPH,GustSpeedMaxMPH,PrecipitationSumIn
2013-2-1,42,34,28,-100,-100,-100,0,0,100,0.00,40.00,0,-999,0,0.00
2013-2-2,41,28,22,-100,-100,-100,0,0,100,0.00,40.00,0,-999,0,0.00
2013-2-3,39,27,17,-100,-100,-100,0,0,100,0.00,40.00,0,-999,0,0.00
2013-2-4,40,35,30,-100,-100,-100,0,0,100,0.00,40.00,0,-999,0,0.00
2013-2-5,42,33,27,-100,-100,-100,0,0,100,0.00,40.00,0,-999,0,0.00
2013-2-6,34,29,21,-100,-100,-100,0,0,100,0.00,40.00,0,-999,0,0.00
2013-2-7,32,24,16,-100,-100,-100,0,0,100,0.00,40.00,0,-999,0,0.00
2013-2-8,34,24,14,-100,-100,-100,0,0,100,0.00,40.00,0,-999,0,0.00
2013-2-9,31,27,25,-100,-100,-100,0,0,100,0.00,40.00,0,-999,0,0.00
2013-2-10,32,21,14,-100,-100,-100,0,0,100,0.00,40.00,0,-999,0,0.00
2013-2-11,34,20,9,-100,-100,-100,0,0,100,0.00,40.00,0,-999,0,0.00
2013-2-12,35,29,19,-100,-100,-100,0,0,100,0.00,40.00,0,-999,0,0.00
2013-2-13,40,34,31,-100,-100,-100,0,0,100,0.00,40.00,0,-999,0,0.00
2013-2-14,36,31,27,-100,-100,-100,0,0,100,0.00,40.00,0,-999,0,0.00
2013-2-15,45,32,26,-100,-100,-100,0,0,100,0.00,40.00,0,-999,0,0.00
2013-2-16,45,32,20,-100,-100,-100,0,0,100,0.00,40.00,0,-999,0,0.00
2013-2-17,33,28,23,-100,-100,-100,0,0,100,0.00,40.00,0,-999,0,0.00
2013-2-18,35,26,21,-100,-100,-100,0,0,100,0.00,40.00,0,-999,0,0.00
2013-2-19,35,26,20,-100,-100,-100,0,0,100,0.00,40.00,0,-999,0,0.00
2013-2-20,31,26,24,-100,-100,-100,0,0,100,0.00,40.00,0,-999,0,0.00
2013-2-21,29,22,9,-100,-100,-100,0,0,100,0.00,40.00,0,-999,0,0.00
2013-2-22,37,28,21,-100,-100,-100,0,0,100,0.00,40.00,0,-999,0,0.00
2013-2-23,34,28,24,-100,-100,-100,0,0,100,0.00,40.00,0,-999,0,0.00
2013-2-24,35,26,20,-100,-100,-100,0,0,100,0.00,40.00,0,-999,0,0.00
2013-2-25,34,26,18,-100,-100,-100,0,0,100,0.00,40.00,0,-999,0,0.00
2013-2-26,33,24,17,-100,-100,-100,0,0,100,0.00,40.00,0,-999,0,0.00
2013-2-27,38,26,16,-100,-100,-100,0,0,100,0.00,40.00,0,-999,0,0.00
2013-2-28,39,30,21,-100,-100,-100,0,0,100,0.00,40.00,0,-999,0,0.00